Tracking 19164 objects as of 21-May-2018
HD Live streaming from Space Station
objects crossing your sky now

BREEZE-M R/B

Track BREEZE-M R/B now!


NORAD ID: 28925
Int'l Code: 2005-052B
Perigee: 6,194.4 km
Apogee: 35,347.8 km
Inclination: 19.5 °
Period: 741.7 minutes
Semi major axis: 27142 km
RCS: 0.6439 m2 (medium)
Launch date: December 29, 2005
Source: Commonwealth of Independent States (former USSR) (CIS)
Launch site: TYURATAM MISSILE AND SPACE COMPLEX (TTMTR)

Note: This is a ROCKET BODY
aabbcc
Your satellite tracking list
Your tracking list is empty




NASA's NSSDC Master Catalog

Two Line Element Set (TLE):
1 28925U 05052B   18140.60066742 +.00000020 +00000-0 +00000-0 0  9995
2 28925 019.4674 317.8532 5370504 276.3348 030.6559 01.94150288087804
Source of the keplerian elements: AFSPC